UAL1102 KPIT-KIAH

Flight info

Callsign UAL1102
Flight time 2h 49m
Altitude 36000
Route AHTIY BURGS HNN HITMN SQS AEX DOOBI3
Aircraft A320/M-SDE3FGHIRWY/LB1

Departure

Time 2026-05-05 22:40
Airport Pittsburgh International Airport (KPIT)

Arrival

Time 2026-05-06 01:29
Airport George Bush Intercontinental Airport (KIAH)
Time Latitude Longitude Altitude Speed Heading
2026-05-05 21:56 40.49848 -80.24863 1183 ft 0 kts 189°
2026-05-05 22:05 40.49849 -80.24863 1184 ft 0 kts 189°
2026-05-05 22:15 40.49850 -80.24863 1184 ft 0 kts 189°
2026-05-05 22:24 40.49851 -80.24863 1183 ft 0 kts 189°
2026-05-05 22:27 40.49851 -80.24862 1183 ft 0 kts 189°
2026-05-05 22:31 40.49854 -80.24862 1184 ft 3 kts 190°
2026-05-05 22:31 40.49879 -80.24851 1172 ft 6 kts 215°
2026-05-05 22:31 40.49897 -80.24827 1165 ft 4 kts 251°
2026-05-05 22:31 40.49897 -80.24798 1166 ft 3 kts 310°
2026-05-05 22:32 40.49895 -80.24794 1169 ft 35 kts 317°
2026-05-05 22:36 40.49908 -80.24810 1158 ft 16 kts 316°
2026-05-05 22:36 40.50000 -80.24843 1155 ft 16 kts
2026-05-05 22:36 40.50063 -80.24745 1154 ft 19 kts 92°
2026-05-05 22:37 40.50058 -80.24556 1154 ft 23 kts 92°
2026-05-05 22:37 40.50051 -80.24332 1155 ft 26 kts 92°
2026-05-05 22:37 40.50041 -80.24083 1154 ft 29 kts 94°
2026-05-05 22:37 40.50035 -80.23813 1154 ft 31 kts 90°
2026-05-05 22:38 40.50032 -80.23537 1153 ft 31 kts 90°
2026-05-05 22:38 40.50040 -80.23368 1152 ft 10 kts 25°
2026-05-05 22:38 40.50129 -80.23372 1149 ft 14 kts 322°
2026-05-05 22:38 40.50136 -80.23468 1151 ft 11 kts 275°
2026-05-05 22:39 40.50140 -80.23533 1150 ft 7 kts 276°
2026-05-05 22:39 40.50146 -80.23677 1150 ft 43 kts 271°
2026-05-05 22:39 40.50165 -80.24428 1154 ft 118 kts 272°
2026-05-05 22:39 40.50187 -80.25774 1173 ft 172 kts 271°
2026-05-05 22:40 40.50220 -80.27339 2015 ft 166 kts 266°
2026-05-05 22:40 40.49989 -80.28810 2876 ft 167 kts 238°
2026-05-05 22:40 40.49103 -80.29829 3598 ft 178 kts 204°
2026-05-05 22:40 40.47812 -80.30059 3961 ft 199 kts 191°
2026-05-05 22:41 40.46489 -80.30670 4191 ft 212 kts 217°
2026-05-05 22:41 40.45215 -80.31745 4590 ft 230 kts 204°
2026-05-05 22:41 40.43572 -80.32171 5097 ft 249 kts 188°
2026-05-05 22:41 40.41819 -80.32254 5880 ft 254 kts 185°
2026-05-05 22:42 40.40042 -80.32280 6668 ft 257 kts 186°
2026-05-05 22:42 40.38250 -80.32343 7425 ft 258 kts 187°
2026-05-05 22:42 40.36446 -80.32466 8200 ft 261 kts 188°
2026-05-05 22:42 40.34629 -80.32642 8982 ft 262 kts 189°
2026-05-05 22:43 40.32803 -80.32855 9740 ft 265 kts 190°
2026-05-05 22:43 40.30950 -80.33094 10349 ft 272 kts 191°
2026-05-05 22:43 40.28991 -80.33363 10510 ft 294 kts 191°
2026-05-05 22:43 40.26894 -80.33658 10816 ft 309 kts 191°
2026-05-05 22:44 40.24733 -80.33953 11385 ft 315 kts 191°
2026-05-05 22:44 40.22538 -80.34249 12002 ft 319 kts 191°
2026-05-05 22:44 40.20322 -80.34550 12627 ft 322 kts 191°
2026-05-05 22:44 40.18084 -80.34856 13264 ft 325 kts 191°
2026-05-05 22:45 40.15820 -80.35165 13873 ft 329 kts 191°
2026-05-05 22:45 40.13534 -80.35478 14427 ft 332 kts 192°
2026-05-05 22:45 40.11229 -80.35792 14994 ft 334 kts 191°
2026-05-05 22:45 40.08935 -80.36104 15572 ft 336 kts 191°
2026-05-05 22:46 40.06599 -80.36419 16097 ft 339 kts 191°
2026-05-05 22:46 40.04238 -80.36738 16647 ft 342 kts 191°
2026-05-05 22:46 40.01854 -80.37064 17230 ft 344 kts 191°
2026-05-05 22:46 39.99466 -80.37393 17825 ft 346 kts 191°
2026-05-05 22:47 39.97064 -80.37722 18368 ft 349 kts 191°
2026-05-05 22:47 39.94636 -80.38054 18824 ft 352 kts 191°
2026-05-05 22:47 39.92247 -80.38666 19302 ft 349 kts 201°
2026-05-05 22:47 39.90020 -80.39900 19782 ft 348 kts 213°
2026-05-05 22:48 39.88014 -80.41664 20251 ft 349 kts 218°
2026-05-05 22:48 39.86065 -80.43500 20705 ft 352 kts 218°
2026-05-05 22:48 39.84068 -80.45377 21137 ft 356 kts 219°
2026-05-05 22:48 39.82049 -80.47270 21599 ft 359 kts 219°
2026-05-05 22:49 39.80006 -80.49181 22052 ft 363 kts 219°
2026-05-05 22:49 39.77943 -80.51105 22494 ft 366 kts 219°
2026-05-05 22:49 39.75863 -80.53043 22946 ft 370 kts 219°
2026-05-05 22:49 39.73758 -80.55002 23354 ft 374 kts 220°
2026-05-05 22:50 39.71624 -80.56988 23643 ft 380 kts 220°
2026-05-05 22:50 39.69588 -80.59161 24019 ft 378 kts 229°
2026-05-05 22:50 39.67868 -80.61724 24394 ft 377 kts 234°
2026-05-05 22:50 39.66196 -80.64345 24780 ft 378 kts 234°
2026-05-05 22:51 39.64507 -80.66978 25136 ft 380 kts 234°
2026-05-05 22:51 39.62814 -80.69610 25545 ft 380 kts 234°
2026-05-05 22:51 39.61108 -80.72260 25892 ft 383 kts 234°
2026-05-05 22:51 39.59400 -80.74910 26256 ft 384 kts 234°
2026-05-05 22:52 39.57679 -80.77573 26608 ft 386 kts 234°
2026-05-05 22:52 39.55952 -80.80241 26962 ft 387 kts 234°
2026-05-05 22:52 39.54240 -80.82883 27320 ft 388 kts 234°
2026-05-05 22:52 39.52503 -80.85568 27667 ft 390 kts 234°
2026-05-05 22:53 39.50759 -80.88265 28015 ft 391 kts 234°
2026-05-05 22:53 39.49009 -80.90969 28365 ft 392 kts 234°
2026-05-05 22:53 39.47255 -80.93686 28712 ft 394 kts 235°
2026-05-05 22:53 39.45495 -80.96409 29038 ft 395 kts 235°
2026-05-05 22:54 39.43717 -80.99153 29344 ft 397 kts 235°
2026-05-05 22:54 39.41942 -81.01885 29788 ft 396 kts 235°
2026-05-05 22:54 39.40173 -81.04602 30210 ft 394 kts 236°
2026-05-05 22:54 39.38406 -81.07313 30596 ft 393 kts 236°
2026-05-05 22:55 39.36646 -81.10010 30976 ft 392 kts 236°
2026-05-05 22:55 39.34886 -81.12711 31336 ft 392 kts 236°
2026-05-05 22:55 39.33133 -81.15400 31714 ft 391 kts 236°
2026-05-05 22:55 39.31380 -81.18085 32093 ft 391 kts 236°
2026-05-05 22:56 39.29630 -81.20764 32469 ft 390 kts 236°
2026-05-05 22:56 39.27883 -81.23435 32859 ft 389 kts 236°
2026-05-05 22:56 39.26135 -81.26106 33209 ft 389 kts 236°
2026-05-05 22:56 39.24391 -81.28769 33519 ft 389 kts 238°
2026-05-05 22:57 39.22636 -81.31446 33777 ft 391 kts 238°
2026-05-05 22:57 39.20898 -81.34096 34040 ft 391 kts 238°
2026-05-05 22:57 39.19139 -81.36772 34328 ft 390 kts 238°
2026-05-05 22:57 39.17386 -81.39435 34639 ft 389 kts 239°
2026-05-05 22:58 39.15637 -81.42090 34912 ft 388 kts 239°
2026-05-05 22:58 39.13889 -81.44742 35206 ft 387 kts 239°
2026-05-05 22:58 39.12146 -81.47383 35478 ft 386 kts 239°
2026-05-05 22:58 39.10409 -81.50016 35752 ft 385 kts 240°
2026-05-05 22:59 39.08675 -81.52641 35857 ft 385 kts 240°
2026-05-05 22:59 39.05214 -81.57879 35878 ft 383 kts 240°
2026-05-05 23:00 39.00025 -81.65721 35877 ft 384 kts 240°
2026-05-05 23:00 38.96566 -81.70928 35883 ft 383 kts 240°
2026-05-05 23:01 38.93108 -81.76135 35879 ft 382 kts 240°
2026-05-05 23:01 38.89672 -81.81291 35881 ft 382 kts 240°
2026-05-05 23:02 38.86193 -81.86505 35883 ft 382 kts 240°
2026-05-05 23:02 38.82753 -81.91650 35869 ft 382 kts 240°
2026-05-05 23:03 38.79280 -81.96836 35880 ft 383 kts 240°
2026-05-05 23:03 38.75812 -82.02010 35879 ft 381 kts 242°
2026-05-05 23:04 38.72845 -82.07489 35880 ft 374 kts 246°
2026-05-05 23:04 38.69957 -82.13022 35879 ft 374 kts 247°
2026-05-05 23:05 38.67063 -82.18554 35888 ft 374 kts 246°
2026-05-05 23:05 38.64148 -82.24087 35883 ft 375 kts 246°
2026-05-05 23:06 38.61221 -82.29625 35884 ft 376 kts 246°
2026-05-05 23:06 38.58312 -82.35128 35883 ft 376 kts 246°
2026-05-05 23:07 38.55384 -82.40675 35866 ft 376 kts 247°
2026-05-05 23:07 38.52455 -82.46206 35881 ft 375 kts 247°
2026-05-05 23:08 38.49529 -82.51718 35898 ft 375 kts 247°
2026-05-05 23:08 38.46601 -82.57220 35897 ft 375 kts 246°
2026-05-05 23:09 38.43673 -82.62723 35899 ft 375 kts 247°
2026-05-05 23:09 38.40747 -82.68220 35893 ft 376 kts 247°
2026-05-05 23:10 38.37804 -82.73732 35898 ft 376 kts 246°
2026-05-05 23:10 38.34860 -82.79233 35884 ft 375 kts 246°
2026-05-05 23:11 38.31917 -82.84712 35894 ft 374 kts 246°
2026-05-05 23:11 38.28996 -82.90143 35895 ft 374 kts 246°
2026-05-05 23:12 38.26054 -82.95607 35901 ft 374 kts 246°
2026-05-05 23:12 38.23117 -83.01074 35895 ft 373 kts 246°
2026-05-05 23:13 38.20181 -83.06529 35895 ft 374 kts 246°
2026-05-05 23:13 38.17236 -83.11974 35897 ft 374 kts 246°
2026-05-05 23:14 38.14782 -83.16501 35895 ft 374 kts 246°
2026-05-05 23:14 38.11830 -83.21931 35900 ft 372 kts 246°
2026-05-05 23:15 38.08889 -83.27353 35891 ft 372 kts 246°
2026-05-05 23:15 38.05953 -83.32769 35905 ft 373 kts 246°
2026-05-05 23:16 38.03000 -83.38190 35893 ft 373 kts 246°
2026-05-05 23:16 38.00038 -83.43602 35885 ft 374 kts 246°
2026-05-05 23:17 37.97065 -83.49037 35888 ft 375 kts 246°
2026-05-05 23:17 37.94116 -83.54447 35896 ft 375 kts 246°
2026-05-05 23:18 37.91150 -83.59863 35898 ft 373 kts 246°
2026-05-05 23:18 37.88180 -83.65260 35892 ft 373 kts 246°
2026-05-05 23:19 37.85207 -83.70645 35898 ft 373 kts 245°
2026-05-05 23:19 37.82234 -83.76034 35895 ft 373 kts 246°
2026-05-05 23:20 37.79263 -83.81424 35892 ft 373 kts 246°
2026-05-05 23:20 37.76283 -83.86823 35896 ft 376 kts 245°
2026-05-05 23:21 37.73282 -83.92235 35890 ft 375 kts 245°
2026-05-05 23:21 37.70314 -83.97577 35892 ft 373 kts 245°
2026-05-05 23:22 37.67329 -84.02945 35896 ft 373 kts 245°
2026-05-05 23:22 37.64349 -84.08307 35894 ft 373 kts 245°
2026-05-05 23:23 37.61363 -84.13671 35898 ft 373 kts 245°
2026-05-05 23:23 37.58371 -84.19033 35896 ft 373 kts 245°
2026-05-05 23:24 37.55376 -84.24388 35900 ft 375 kts 245°
2026-05-05 23:24 37.52370 -84.29759 35898 ft 375 kts 245°
2026-05-05 23:25 37.49369 -84.35114 35898 ft 373 kts 245°
2026-05-05 23:25 37.46381 -84.40412 35892 ft 374 kts 245°
2026-05-05 23:26 37.43373 -84.45745 35892 ft 373 kts 245°
2026-05-05 23:26 37.40373 -84.51077 35895 ft 373 kts 245°
2026-05-05 23:27 37.37367 -84.56402 35896 ft 373 kts 245°
2026-05-05 23:27 37.34358 -84.61723 35878 ft 373 kts 245°
2026-05-05 23:28 37.31346 -84.67060 35895 ft 374 kts 245°
2026-05-05 23:28 37.28353 -84.72334 35893 ft 372 kts 245°
2026-05-05 23:29 37.25345 -84.77624 35884 ft 372 kts 246°
2026-05-05 23:29 37.22335 -84.82908 35882 ft 372 kts 245°
2026-05-05 23:30 37.19319 -84.88184 35885 ft 372 kts 245°
2026-05-05 23:30 37.16306 -84.93464 35885 ft 372 kts 245°
2026-05-05 23:31 37.13292 -84.98743 35888 ft 372 kts 245°
2026-05-05 23:31 37.10269 -85.04026 35891 ft 374 kts 245°
2026-05-05 23:32 37.07256 -85.09276 35895 ft 373 kts 245°
2026-05-05 23:32 37.04227 -85.14552 35884 ft 372 kts 245°
2026-05-05 23:33 37.01201 -85.19811 35888 ft 372 kts 245°
2026-05-05 23:33 36.98169 -85.25066 35888 ft 372 kts 245°
2026-05-05 23:34 36.95138 -85.30315 35875 ft 372 kts 245°
2026-05-05 23:34 36.92103 -85.35569 35882 ft 372 kts 245°
2026-05-05 23:35 36.89071 -85.40814 35871 ft 373 kts 245°
2026-05-05 23:35 36.86026 -85.46063 35876 ft 372 kts 245°
2026-05-05 23:36 36.82987 -85.51283 35880 ft 371 kts 245°
2026-05-05 23:36 36.79954 -85.56492 35880 ft 371 kts 245°
2026-05-05 23:37 36.76926 -85.61694 35872 ft 371 kts 245°
2026-05-05 23:37 36.73888 -85.66898 35877 ft 371 kts 245°
2026-05-05 23:38 36.70867 -85.72063 35878 ft 371 kts 245°
2026-05-05 23:38 36.67829 -85.77252 35872 ft 371 kts 245°
2026-05-05 23:39 36.64780 -85.82456 35874 ft 372 kts 245°
2026-05-05 23:39 36.61734 -85.87657 35877 ft 372 kts 245°
2026-05-05 23:40 36.58681 -85.92854 35875 ft 372 kts 245°
2026-05-05 23:40 36.55622 -85.98050 35882 ft 372 kts 245°
2026-05-05 23:41 36.52556 -86.03236 35883 ft 372 kts 245°
2026-05-05 23:41 36.49486 -86.08420 35880 ft 372 kts 245°
2026-05-05 23:42 36.46420 -86.13601 35889 ft 372 kts 245°
2026-05-05 23:42 36.43377 -86.18748 35852 ft 372 kts 245°
2026-05-05 23:43 36.40315 -86.23917 35886 ft 370 kts 245°
2026-05-05 23:43 36.37253 -86.29065 35926 ft 370 kts 245°
2026-05-05 23:44 36.34187 -86.34207 35925 ft 370 kts 245°
2026-05-05 23:44 36.31124 -86.39341 35926 ft 370 kts 245°
2026-05-05 23:45 36.28064 -86.44479 35924 ft 370 kts 245°
2026-05-05 23:45 36.24996 -86.49610 35921 ft 371 kts 245°
2026-05-05 23:46 36.21923 -86.54736 35897 ft 371 kts 245°
2026-05-05 23:46 36.18868 -86.59824 35885 ft 370 kts 245°
2026-05-05 23:47 36.15799 -86.64939 35898 ft 370 kts 245°
2026-05-05 23:47 36.12680 -86.70014 35898 ft 373 kts 243°
2026-05-05 23:48 36.09276 -86.74904 35898 ft 376 kts 240°
2026-05-05 23:48 36.05769 -86.79714 35898 ft 377 kts 240°
2026-05-05 23:49 36.02286 -86.84550 35870 ft 376 kts 240°
2026-05-05 23:49 35.98845 -86.89405 35875 ft 376 kts 241°
2026-05-05 23:50 35.95406 -86.94260 35881 ft 376 kts 241°
2026-05-05 23:50 35.91966 -86.99113 35886 ft 375 kts 240°
2026-05-05 23:51 35.88546 -87.03915 35894 ft 375 kts 240°
2026-05-05 23:51 35.85100 -87.08739 35894 ft 375 kts 240°
2026-05-05 23:52 35.81652 -87.13564 35892 ft 375 kts 240°
2026-05-05 23:52 35.78198 -87.18382 35886 ft 375 kts 240°
2026-05-05 23:53 35.74734 -87.23204 35903 ft 375 kts 240°
2026-05-05 23:53 35.71279 -87.28020 35878 ft 376 kts 240°
2026-05-05 23:54 35.67813 -87.32854 35907 ft 377 kts 240°
2026-05-05 23:54 35.64344 -87.37679 35898 ft 375 kts 240°
2026-05-05 23:55 35.60882 -87.42480 35898 ft 375 kts 240°
2026-05-05 23:55 35.57420 -87.47278 35897 ft 375 kts 240°
2026-05-05 23:56 35.53960 -87.52071 35902 ft 375 kts 240°
2026-05-05 23:56 35.50497 -87.56860 35904 ft 375 kts 240°
2026-05-05 23:57 35.47031 -87.61647 35877 ft 375 kts 240°
2026-05-05 23:57 35.43577 -87.66402 35905 ft 376 kts 240°
2026-05-05 23:58 35.40093 -87.71188 35899 ft 376 kts 240°
2026-05-05 23:58 35.36621 -87.75966 35902 ft 375 kts 240°
2026-05-05 23:59 35.33155 -87.80731 35902 ft 375 kts 240°
2026-05-05 23:59 35.29679 -87.85488 35905 ft 375 kts 240°
2026-05-06 00:00 35.26229 -87.90207 35904 ft 375 kts 240°
2026-05-06 00:00 35.22742 -87.94962 35875 ft 375 kts 240°
2026-05-06 00:01 35.19260 -87.99719 35905 ft 375 kts 240°
2026-05-06 00:01 35.15774 -88.04474 35896 ft 375 kts 240°
2026-05-06 00:02 35.12282 -88.09222 35896 ft 376 kts 239°
2026-05-06 00:02 35.08794 -88.13952 35899 ft 374 kts 240°
2026-05-06 00:03 35.05319 -88.18673 35896 ft 374 kts 240°
2026-05-06 00:03 35.02438 -88.22582 35896 ft 374 kts 239°
2026-05-06 00:04 34.98951 -88.27299 35894 ft 373 kts 239°
2026-05-06 00:04 34.95469 -88.32006 35891 ft 374 kts 240°
2026-05-06 00:05 34.90233 -88.39077 35890 ft 375 kts 239°
2026-05-06 00:06 34.86733 -88.43784 35887 ft 375 kts 239°
2026-05-06 00:06 34.83236 -88.48492 35889 ft 374 kts 239°
2026-05-06 00:07 34.79742 -88.53173 35883 ft 373 kts 239°
2026-05-06 00:07 34.76279 -88.57809 35891 ft 373 kts 239°
2026-05-06 00:08 34.72793 -88.62478 35892 ft 373 kts 239°
2026-05-06 00:08 34.69307 -88.67142 35891 ft 373 kts 239°
2026-05-06 00:09 34.65817 -88.71812 35891 ft 373 kts 239°
2026-05-06 00:09 34.62326 -88.76469 35893 ft 373 kts 239°
2026-05-06 00:10 34.58835 -88.81121 35892 ft 373 kts 239°
2026-05-06 00:10 34.55339 -88.85778 35894 ft 373 kts 239°
2026-05-06 00:11 34.51854 -88.90411 35893 ft 371 kts 239°
2026-05-06 00:11 34.48376 -88.95019 35887 ft 370 kts 239°
2026-05-06 00:12 34.44900 -88.99626 35894 ft 370 kts 239°
2026-05-06 00:12 34.41425 -89.04234 35895 ft 370 kts 239°
2026-05-06 00:13 34.37962 -89.08814 35887 ft 370 kts 239°
2026-05-06 00:13 34.34480 -89.13409 35885 ft 371 kts 239°
2026-05-06 00:14 34.30991 -89.18004 35885 ft 371 kts 239°
2026-05-06 00:14 34.27502 -89.22601 35885 ft 370 kts 239°
2026-05-06 00:15 34.24015 -89.27177 35882 ft 369 kts 239°
2026-05-06 00:15 34.20559 -89.31711 35850 ft 369 kts 239°
2026-05-06 00:16 34.17081 -89.36284 35884 ft 370 kts 239°
2026-05-06 00:16 34.13588 -89.40860 35880 ft 370 kts 239°
2026-05-06 00:17 34.10087 -89.45426 35885 ft 370 kts 239°
2026-05-06 00:17 34.06590 -89.49988 35884 ft 370 kts 239°
2026-05-06 00:18 34.03100 -89.54553 35882 ft 370 kts 239°
2026-05-06 00:18 33.99608 -89.59111 35882 ft 370 kts 239°
2026-05-06 00:19 33.96108 -89.63674 35883 ft 370 kts 239°
2026-05-06 00:19 33.92625 -89.68199 35880 ft 371 kts 238°
2026-05-06 00:20 33.89107 -89.72760 35878 ft 372 kts 238°
2026-05-06 00:20 33.85579 -89.77320 35878 ft 372 kts 238°
2026-05-06 00:21 33.82058 -89.81877 35878 ft 372 kts 238°
2026-05-06 00:21 33.78536 -89.86438 35884 ft 372 kts 238°
2026-05-06 00:22 33.75014 -89.90987 35888 ft 372 kts 238°
2026-05-06 00:22 33.71503 -89.95502 35888 ft 372 kts 238°
2026-05-06 00:23 33.67975 -90.00047 35839 ft 372 kts 238°
2026-05-06 00:23 33.64449 -90.04592 35873 ft 372 kts 238°
2026-05-06 00:24 33.60913 -90.09137 35873 ft 372 kts 238°
2026-05-06 00:24 33.57367 -90.13682 35870 ft 372 kts 238°
2026-05-06 00:25 33.53822 -90.18217 35869 ft 372 kts 238°
2026-05-06 00:25 33.50280 -90.22748 35870 ft 372 kts 238°
2026-05-06 00:26 33.46756 -90.27247 35872 ft 373 kts 237°
2026-05-06 00:26 33.42822 -90.31454 35873 ft 380 kts 232°
2026-05-06 00:27 33.38822 -90.35600 35875 ft 380 kts 232°
2026-05-06 00:27 33.34825 -90.39741 35882 ft 379 kts 232°
2026-05-06 00:28 33.30851 -90.43868 35877 ft 378 kts 232°
2026-05-06 00:28 33.26879 -90.47984 35876 ft 378 kts 232°
2026-05-06 00:29 33.22908 -90.52096 35880 ft 378 kts 232°
2026-05-06 00:29 33.18936 -90.56205 35879 ft 378 kts 232°
2026-05-06 00:30 33.14958 -90.60313 35845 ft 378 kts 232°
2026-05-06 00:30 33.10973 -90.64422 35848 ft 379 kts 232°
2026-05-06 00:31 33.06997 -90.68516 35855 ft 380 kts 232°
2026-05-06 00:31 33.02994 -90.72634 35865 ft 380 kts 232°
2026-05-06 00:32 32.98978 -90.76760 35867 ft 381 kts 232°
2026-05-06 00:32 32.94959 -90.80881 35873 ft 381 kts 232°
2026-05-06 00:33 32.90936 -90.85002 35879 ft 381 kts 232°
2026-05-06 00:33 32.86910 -90.89125 35843 ft 381 kts 231°
2026-05-06 00:34 32.82906 -90.93222 35868 ft 382 kts 231°
2026-05-06 00:34 32.78858 -90.97352 35890 ft 383 kts 231°
2026-05-06 00:35 32.74810 -91.01475 35902 ft 384 kts 231°
2026-05-06 00:35 32.70754 -91.05602 35912 ft 384 kts 231°
2026-05-06 00:36 32.66696 -91.09730 35919 ft 384 kts 231°
2026-05-06 00:36 32.62638 -91.13850 35923 ft 384 kts 231°
2026-05-06 00:37 32.58577 -91.17969 35886 ft 384 kts 231°
2026-05-06 00:37 32.54505 -91.22095 35890 ft 385 kts 231°
2026-05-06 00:38 32.50454 -91.26199 35892 ft 386 kts 231°
2026-05-06 00:38 32.46363 -91.30336 35900 ft 386 kts 231°
2026-05-06 00:39 32.42266 -91.34463 35888 ft 386 kts 231°
2026-05-06 00:39 32.38169 -91.38588 35893 ft 386 kts 231°
2026-05-06 00:40 32.34073 -91.42715 35892 ft 386 kts 231°
2026-05-06 00:40 32.29977 -91.46839 35865 ft 387 kts 230°
2026-05-06 00:41 32.25879 -91.50964 35881 ft 387 kts 230°
2026-05-06 00:41 32.21774 -91.55084 35884 ft 387 kts 230°
2026-05-06 00:42 32.17672 -91.59193 35892 ft 386 kts 230°
2026-05-06 00:42 32.13599 -91.63266 35895 ft 386 kts 230°
2026-05-06 00:43 32.09505 -91.67358 35898 ft 386 kts 230°
2026-05-06 00:43 32.05413 -91.71445 35857 ft 386 kts 230°
2026-05-06 00:44 32.01317 -91.75532 35862 ft 386 kts 230°
2026-05-06 00:44 31.97216 -91.79622 35870 ft 386 kts 230°
2026-05-06 00:45 31.93113 -91.83708 35871 ft 387 kts 230°
2026-05-06 00:45 31.88996 -91.87792 35877 ft 387 kts 230°
2026-05-06 00:46 31.84880 -91.91875 35882 ft 387 kts 230°
2026-05-06 00:46 31.80769 -91.95946 35892 ft 386 kts 230°
2026-05-06 00:47 31.76666 -92.00006 35861 ft 385 kts 230°
2026-05-06 00:47 31.72575 -92.04055 35872 ft 384 kts 230°
2026-05-06 00:48 31.68512 -92.08073 35879 ft 384 kts 230°
2026-05-06 00:48 31.64396 -92.12135 35879 ft 384 kts 230°
2026-05-06 00:49 31.60335 -92.16133 35886 ft 384 kts 230°
2026-05-06 00:49 31.56246 -92.20162 35875 ft 383 kts 230°
2026-05-06 00:50 31.52151 -92.24188 35881 ft 384 kts 229°
2026-05-06 00:50 31.48058 -92.28199 35847 ft 384 kts 229°
2026-05-06 00:51 31.43961 -92.32213 35876 ft 384 kts 229°
2026-05-06 00:51 31.40559 -92.35547 35876 ft 383 kts 229°
2026-05-06 00:52 31.36471 -92.39555 35885 ft 383 kts 229°
2026-05-06 00:52 31.32379 -92.43547 35894 ft 383 kts 229°
2026-05-06 00:53 31.28289 -92.47534 35890 ft 383 kts 229°
2026-05-06 00:53 31.24834 -92.52042 35891 ft 364 kts 246°
2026-05-06 00:54 31.22524 -92.57272 35892 ft 362 kts 249°
2026-05-06 00:54 31.20220 -92.62508 35857 ft 363 kts 248°
2026-05-06 00:55 31.17903 -92.67759 35875 ft 364 kts 248°
2026-05-06 00:55 31.15595 -92.72988 35895 ft 365 kts 248°
2026-05-06 00:56 31.13269 -92.78247 35913 ft 365 kts 248°
2026-05-06 00:56 31.10939 -92.83508 35921 ft 364 kts 248°
2026-05-06 00:57 31.08618 -92.88764 35914 ft 364 kts 248°
2026-05-06 00:57 31.06287 -92.94016 35900 ft 364 kts 248°
2026-05-06 00:58 31.03954 -92.99265 35892 ft 364 kts 248°
2026-05-06 00:58 31.01621 -93.04512 35887 ft 364 kts 248°
2026-05-06 00:59 30.99287 -93.09753 35885 ft 364 kts 248°
2026-05-06 00:59 30.96968 -93.14963 35887 ft 364 kts 248°
2026-05-06 01:00 30.94633 -93.20192 35885 ft 364 kts 247°
2026-05-06 01:00 30.92289 -93.25416 35895 ft 364 kts 248°
2026-05-06 01:01 30.89950 -93.30644 35869 ft 364 kts 247°
2026-05-06 01:01 30.88777 -93.33264 35505 ft 366 kts 247°
2026-05-06 01:01 30.87593 -93.35908 34548 ft 366 kts 247°
2026-05-06 01:01 30.86443 -93.38456 34361 ft 345 kts 246°
2026-05-06 01:02 30.85312 -93.40950 31991 ft 368 kts 247°
2026-05-06 01:02 30.84150 -93.43580 31399 ft 357 kts 248°
2026-05-06 01:02 30.83026 -93.46068 31157 ft 339 kts 248°
2026-05-06 01:02 30.81938 -93.48468 30919 ft 333 kts 248°
2026-05-06 01:03 30.80876 -93.50817 30679 ft 321 kts 248°
2026-05-06 01:03 30.79846 -93.53094 30447 ft 315 kts 249°
2026-05-06 01:03 30.78837 -93.55334 30215 ft 310 kts 249°
2026-05-06 01:03 30.77843 -93.57538 29984 ft 305 kts 249°
2026-05-06 01:04 30.76865 -93.59705 29725 ft 300 kts 249°
2026-05-06 01:04 30.75903 -93.61835 29453 ft 295 kts 249°
2026-05-06 01:04 30.74956 -93.63927 29185 ft 289 kts 249°
2026-05-06 01:04 30.74028 -93.65977 28917 ft 284 kts 249°
2026-05-06 01:05 30.73117 -93.67987 28658 ft 278 kts 249°
2026-05-06 01:05 30.72224 -93.69955 28392 ft 272 kts 249°
2026-05-06 01:05 30.71345 -93.71898 28138 ft 277 kts 249°
2026-05-06 01:05 30.70423 -93.73966 27885 ft 299 kts 249°
2026-05-06 01:06 30.69445 -93.76160 27626 ft 311 kts 248°
2026-05-06 01:06 30.68449 -93.78369 27373 ft 314 kts 248°
2026-05-06 01:06 30.67425 -93.80627 27143 ft 322 kts 248°
2026-05-06 01:06 30.66349 -93.83013 26887 ft 343 kts 247°
2026-05-06 01:07 30.65222 -93.85504 26638 ft 352 kts 247°
2026-05-06 01:07 30.64075 -93.88027 26398 ft 354 kts 247°
2026-05-06 01:07 30.62923 -93.90550 26157 ft 354 kts 247°
2026-05-06 01:07 30.61771 -93.93070 25919 ft 353 kts 247°
2026-05-06 01:08 30.60623 -93.95589 25568 ft 352 kts 247°
2026-05-06 01:08 30.59482 -93.98096 25113 ft 350 kts 247°
2026-05-06 01:08 30.58346 -94.00588 24638 ft 349 kts 246°
2026-05-06 01:08 30.57210 -94.03074 24168 ft 348 kts 246°
2026-05-06 01:09 30.56080 -94.05554 23695 ft 347 kts 246°
2026-05-06 01:09 30.54953 -94.08032 23183 ft 347 kts 246°
2026-05-06 01:09 30.53826 -94.10507 22691 ft 346 kts 246°
2026-05-06 01:09 30.52704 -94.12964 22232 ft 344 kts 246°
2026-05-06 01:10 30.51587 -94.15406 21775 ft 342 kts 246°
2026-05-06 01:10 30.50472 -94.17840 21313 ft 340 kts 246°
2026-05-06 01:10 30.49367 -94.20252 20869 ft 338 kts 245°
2026-05-06 01:10 30.48265 -94.22650 20421 ft 335 kts 245°
2026-05-06 01:11 30.47173 -94.25024 19969 ft 333 kts 245°
2026-05-06 01:11 30.46087 -94.27383 19528 ft 330 kts 245°
2026-05-06 01:11 30.45008 -94.29726 19089 ft 328 kts 245°
2026-05-06 01:11 30.43939 -94.32047 18654 ft 324 kts 244°
2026-05-06 01:12 30.42912 -94.34270 18242 ft 310 kts 244°
2026-05-06 01:12 30.41916 -94.36425 17802 ft 297 kts 244°
2026-05-06 01:12 30.40960 -94.38497 17399 ft 288 kts 244°
2026-05-06 01:12 30.39887 -94.40460 17013 ft 290 kts 234°
2026-05-06 01:13 30.38424 -94.42083 16634 ft 293 kts 224°
2026-05-06 01:13 30.36855 -94.43572 16248 ft 287 kts 224°
2026-05-06 01:13 30.35314 -94.45038 15882 ft 286 kts 224°
2026-05-06 01:13 30.33781 -94.46500 15510 ft 286 kts 224°
2026-05-06 01:14 30.30712 -94.49425 14767 ft 285 kts 224°
2026-05-06 01:14 30.29179 -94.50886 14406 ft 285 kts 224°
2026-05-06 01:14 30.27644 -94.52347 14034 ft 286 kts 223°
2026-05-06 01:15 30.26109 -94.53808 13658 ft 286 kts 223°
2026-05-06 01:15 30.24572 -94.55272 13278 ft 285 kts 223°
2026-05-06 01:15 30.23070 -94.56696 13197 ft 274 kts 223°
2026-05-06 01:15 30.21623 -94.58063 13091 ft 261 kts 223°
2026-05-06 01:16 30.20277 -94.59329 12932 ft 247 kts 222°
2026-05-06 01:16 30.18912 -94.60570 12435 ft 253 kts 221°
2026-05-06 01:16 30.17505 -94.61825 11978 ft 258 kts 220°
2026-05-06 01:16 30.16068 -94.63100 11506 ft 263 kts 220°
2026-05-06 01:17 30.14604 -94.64399 11050 ft 268 kts 219°
2026-05-06 01:17 30.13129 -94.65706 10575 ft 265 kts 219°
2026-05-06 01:17 30.11709 -94.66962 10449 ft 246 kts 219°
2026-05-06 01:17 30.10395 -94.68122 10377 ft 230 kts 219°
2026-05-06 01:18 30.09134 -94.69239 10133 ft 228 kts 219°
2026-05-06 01:18 30.07886 -94.70349 9825 ft 226 kts 218°
2026-05-06 01:18 30.06637 -94.71458 9493 ft 227 kts 218°
2026-05-06 01:18 30.05384 -94.72570 9166 ft 227 kts 218°
2026-05-06 01:19 30.04136 -94.73687 8852 ft 227 kts 219°
2026-05-06 01:19 30.02895 -94.74821 8531 ft 227 kts 219°
2026-05-06 01:19 30.01708 -94.76019 8206 ft 226 kts 231°
2026-05-06 01:19 30.00955 -94.77600 7913 ft 226 kts 252°
2026-05-06 01:20 30.00754 -94.79397 7683 ft 227 kts 264°
2026-05-06 01:20 30.00676 -94.81216 7439 ft 227 kts 263°
2026-05-06 01:20 30.00614 -94.83045 7194 ft 227 kts 267°
2026-05-06 01:20 30.00610 -94.84853 6959 ft 224 kts 268°
2026-05-06 01:21 30.00625 -94.86633 6726 ft 221 kts 266°
2026-05-06 01:21 30.00640 -94.88419 6482 ft 224 kts 267°
2026-05-06 01:21 30.00656 -94.90213 6245 ft 223 kts 268°
2026-05-06 01:21 30.00670 -94.91993 5998 ft 221 kts 267°
2026-05-06 01:22 30.00680 -94.93761 5761 ft 220 kts 267°
2026-05-06 01:22 30.00686 -94.95504 5537 ft 220 kts 267°
2026-05-06 01:22 30.00691 -94.97296 5294 ft 221 kts 267°
2026-05-06 01:22 30.00691 -94.99066 5057 ft 221 kts 266°
2026-05-06 01:23 30.00695 -95.00811 4829 ft 220 kts 267°
2026-05-06 01:23 30.00698 -95.02579 4590 ft 220 kts 266°
2026-05-06 01:23 30.00701 -95.04344 4343 ft 220 kts 266°
2026-05-06 01:23 30.00704 -95.06099 4109 ft 217 kts 266°
2026-05-06 01:24 30.00707 -95.07825 3882 ft 213 kts 265°
2026-05-06 01:24 30.00710 -95.09484 3741 ft 198 kts 265°
2026-05-06 01:24 30.00714 -95.10982 3634 ft 177 kts 264°
2026-05-06 01:24 30.00714 -95.12375 3458 ft 175 kts 263°
2026-05-06 01:25 30.00714 -95.13780 3251 ft 175 kts 264°
2026-05-06 01:25 30.00714 -95.15182 3037 ft 175 kts 263°
2026-05-06 01:25 30.00716 -95.16579 2805 ft 173 kts 263°
2026-05-06 01:25 30.00717 -95.17962 2580 ft 173 kts 263°
2026-05-06 01:26 30.00718 -95.19345 2354 ft 168 kts 263°
2026-05-06 01:26 30.00720 -95.20645 2139 ft 157 kts 262°
2026-05-06 01:26 30.00721 -95.21883 1943 ft 153 kts 261°
2026-05-06 01:26 30.00720 -95.23106 1745 ft 152 kts 261°
2026-05-06 01:27 30.00720 -95.24328 1550 ft 153 kts 261°
2026-05-06 01:27 30.00719 -95.25537 1361 ft 156 kts 261°
2026-05-06 01:27 30.00735 -95.26775 1197 ft 145 kts 262°
2026-05-06 01:27 30.00762 -95.27935 875 ft 149 kts 263°
2026-05-06 01:28 30.00738 -95.29148 767 ft 153 kts 264°
2026-05-06 01:28 30.00718 -95.30408 633 ft 159 kts 265°
2026-05-06 01:28 30.00714 -95.31691 365 ft 161 kts 266°
2026-05-06 01:28 30.00721 -95.32983 140 ft 159 kts 265°
2026-05-06 01:29 30.00715 -95.34141 107 ft 123 kts 269°
2026-05-06 01:29 30.00714 -95.34925 106 ft 73 kts 271°
2026-05-06 01:29 30.00703 -95.35347 106 ft 39 kts 254°
2026-05-06 01:29 30.00598 -95.35550 106 ft 30 kts 243°
2026-05-06 01:30 30.00468 -95.35667 105 ft 23 kts 179°
2026-05-06 01:30 30.00306 -95.35651 107 ft 24 kts 178°
2026-05-06 01:30 30.00165 -95.35589 107 ft 20 kts 141°
2026-05-06 01:30 30.00047 -95.35503 107 ft 21 kts 161°
2026-05-06 01:31 29.99922 -95.35515 107 ft 17 kts 234°
2026-05-06 01:31 29.99907 -95.35562 105 ft 0 kts 256°